Globalstar M092

operational
NORAD ID: 38043 Int'l Des: 2011-080 Owner: GLOBL Country: US Constellation: globalstar
LEOCIRCULAR

Globalstar M092について

説明を読み込み中...

リアルタイム位置

3D地球を読み込み中...

次回通過

高度履歴

Altitude vs Time

uPlot chart will show altitude changes over time

軌道要素

1 38043U 11080D 25298.59593729 -.00000097 00000-0 39753-4 0 9991
2 38043 52.0092 58.9569 0000718 104.5612 268.7070 12.62267294638429
Epoch: Oct 25, 2025 • Age: 27 hours

現在のステータス

高度 1413.3 km
速度 7.16 km/s
衛星直下点 17.16°N, 78.83°W
打ち上げ日 Dec 28, 2011
運用期間 13.8 years
タイプ communications

技術仕様

分類 Payload
質量 715.00 kg
乾燥質量 500.00 kg
総質量 715.00 kg
長さ 4.00 m
直径 2.00 m
スパン 12.00 m
形状 Trap Cyl + 2 Pan
製造者 THALR
バスタイプ Prisma
フェーズステータス In Orbit
所有者/国 GLOBL/US

大規模コンステレーション

Loading constellations...